Precipitable_Water
1.04 1.09 1.11 1.08 1.06 1.09 1.19 1.27 1.25 1.19 1.11 1.03 1.04 1.03 1.05 1.06 1.03 0.99 0.96 0.96 0.95 0.93 0.91 0.90 0.84 0.79 0.78 0.77 0.81 0.83 0.86 0.88 0.87 0.80 0.82 0.85 0.87 0.86 0.82 0.84 0.82 0.86 0.90 0.89 0.89 0.90 0.93 0.99 1.00 1.00 1.02 1.03 1.05 1.07 1.08 1.08 1.10 1.11 1.11 1.12 1.10 1.12 1.15
1.01 1.05 1.11 1.09 1.07 1.11 1.20 1.25 1.24 1.16 1.10 1.05 1.05 1.06 1.10 1.08 1.03 0.99 0.99 0.99 0.99 0.97 0.94 0.91 0.86 0.82 0.76 0.78 0.82 0.84 0.83 0.84 0.84 0.86 0.86 0.89 0.91 0.89 0.87 0.86 0.87 0.89 0.92 0.92 0.93 0.97 0.97 1.01 1.04 1.04 1.04 1.06 1.08 1.09 1.08 1.08 1.10 1.12 1.13 1.14 1.14 1.15 1.18
1.10 1.10 1.12 1.10 1.08 1.12 1.19 1.24 1.23 1.16 1.09 1.05 1.06 1.09 1.11 1.10 1.04 1.02 1.03 1.02 1.02 1.01 0.99 0.95 0.92 0.87 0.83 0.82 0.78 0.84 0.81 0.79 0.79 0.82 0.83 0.81 0.81 0.83 0.87 0.90 0.93 0.94 0.96 0.97 0.98 0.97 0.99 1.00 1.03 1.05 1.05 1.05 1.06 1.07 1.07 1.07 1.08 1.11 1.12 1.13 1.15 1.15 1.18
1.08 1.14 1.13 1.14 1.13 1.13 1.17 1.19 1.18 1.14 1.08 1.05 1.07 1.12 1.14 1.13 1.11 1.09 1.10 1.05 1.04 1.02 0.96 0.99 0.94 0.89 0.86 0.84 0.81 0.80 0.79 0.80 0.78 0.79 0.82 0.83 0.81 0.83 0.87 0.93 0.95 0.97 0.97 0.97 1.00 0.99 0.99 0.99 1.00 1.01 1.04 1.04 1.05 1.07 1.06 1.05 1.05 1.08 1.10 1.12 1.13 1.14 1.17
1.09 1.19 1.18 1.12 1.07 1.08 1.13 1.13 1.12 1.10 1.03 1.04 1.10 1.16 1.19 1.18 1.15 1.13 1.12 1.08 1.08 1.05 1.01 1.02 0.96 0.91 0.87 0.81 0.79 0.76 0.76 0.75 0.79 0.83 0.82 0.83 0.83 0.86 0.88 0.90 0.94 0.96 0.98 1.00 0.99 0.96 0.98 0.98 0.98 0.98 1.00 1.02 1.03 1.05 1.03 1.03 1.04 1.08 1.12 1.14 1.09 1.14 1.15
1.00 1.09 1.10 1.07 1.07 1.09 1.09 1.08 1.08 1.07 1.03 1.02 1.10 1.17 1.22 1.20 1.18 1.14 1.14 1.10 1.08 1.07 1.03 0.98 0.91 0.88 0.83 0.86 0.80 0.79 0.78 0.79 0.80 0.82 0.82 0.83 0.83 0.85 0.87 0.91 0.94 0.96 0.96 0.96 0.97 0.99 0.98 0.99 0.97 0.97 0.97 0.99 1.01 1.03 1.03 1.04 1.04 1.09 1.12 1.13 1.14 1.18 1.14
0.97 1.04 1.05 1.06 1.06 1.06 1.04 1.03 1.05 1.09 1.08 1.10 1.19 1.24 1.22 1.20 1.16 1.13 1.16 1.12 1.08 1.02 0.97 0.94 0.91 0.88 0.87 0.82 0.80 0.76 0.76 0.79 0.82 0.84 0.86 0.85 0.87 0.87 0.91 0.93 0.94 0.95 0.96 0.97 0.98 0.98 0.98 0.96 0.96 0.99 1.01 1.03 1.05 1.02 1.00 1.09 1.04 1.05 1.10 1.15 1.18 1.16 1.14
0.94 1.00 1.03 1.07 1.07 1.04 1.03 1.05 1.06 1.10 1.13 1.15 1.21 1.20 1.17 1.17 1.17 1.11 1.10 1.13 1.11 1.05 1.02 0.98 0.98 0.92 0.86 0.81 0.77 0.74 0.77 0.79 0.81 0.83 0.85 0.84 0.87 0.89 0.93 0.93 0.92 0.93 0.97 0.97 0.99 1.01 0.97 0.97 0.99 1.01 1.03 1.04 1.07 1.08 1.07 1.07 1.07 1.07 1.07 1.07 1.10 1.13 1.21
0.91 0.96 0.99 1.02 1.05 1.09 1.08 1.08 1.09 1.12 1.14 1.16 1.20 1.20 1.19 1.18 1.14 1.12 1.11 1.09 1.09 1.01 0.94 0.90 0.94 0.97 0.91 0.82 0.77 0.79 0.80 0.81 0.82 0.84 0.85 0.84 0.87 0.89 0.88 0.90 0.91 0.93 0.94 0.97 0.98 1.01 1.00 0.98 0.97 0.98 1.02 1.04 1.06 1.10 1.12 1.11 1.06 1.08 1.06 1.06 1.10 1.14 1.21
0.87 0.92 0.97 1.00 1.08 1.13 1.14 1.13 1.16 1.19 1.18 1.20 1.18 1.20 1.20 1.18 1.13 1.13 1.12 1.11 1.09 1.03 0.96 0.92 0.93 0.94 0.94 0.84 0.80 0.82 0.82 0.82 0.85 0.83 0.82 0.83 0.88 0.88 0.90 0.92 0.94 0.95 0.93 0.96 0.98 1.00 1.03 1.04 1.01 1.01 1.03 1.05 1.09 1.12 1.13 1.13 1.09 1.07 1.06 1.07 1.09 1.14 1.18
0.86 0.92 0.98 1.01 1.04 1.09 1.13 1.13 1.13 1.14 1.14 1.14 1.17 1.22 1.24 1.22 1.15 1.12 1.11 1.09 1.06 1.03 1.03 1.02 1.00 0.95 0.88 0.82 0.81 0.85 0.86 0.86 0.87 0.84 0.84 0.85 0.88 0.87 0.90 0.91 0.92 0.94 0.92 0.93 0.99 1.01 1.00 0.98 1.00 1.03 1.03 1.04 1.07 1.10 1.11 1.10 1.08 1.05 1.05 1.07 1.11 1.10 1.13
0.91 0.93 0.93 0.97 1.01 1.03 1.05 1.09 1.12 1.11 1.13 1.16 1.19 1.23 1.26 1.22 1.16 1.13 1.11 1.09 1.06 1.01 0.98 1.00 1.02 0.99 0.90 0.82 0.81 0.85 0.87 0.89 0.87 0.84 0.84 0.87 0.88 0.89 0.91 0.93 0.96 0.95 0.92 0.89 0.86 0.88 0.90 0.91 0.95 1.02 1.05 1.05 1.06 1.08 1.09 1.10 1.10 1.11 1.10 1.09 1.08 1.09 1.11
0.93 0.96 0.98 0.98 1.01 1.05 1.10 1.13 1.12 1.14 1.17 1.18 1.21 1.26 1.27 1.18 1.13 1.10 1.11 1.10 1.06 1.03 1.02 1.03 1.02 0.97 0.85 0.78 0.78 0.83 0.85 0.88 0.86 0.86 0.87 0.88 0.90 0.91 0.92 0.94 0.97 0.98 0.98 0.98 0.92 0.89 0.92 0.92 0.90 0.94 1.01 1.08 1.08 1.05 1.06 1.10 1.09 1.09 1.11 1.11 1.08 1.07 1.06
0.89 0.94 1.00 1.05 1.06 1.07 1.08 1.13 1.18 1.21 1.21 1.21 1.23 1.26 1.24 1.18 1.12 1.09 1.08 1.05 1.05 1.05 1.03 1.02 1.02 0.97 0.85 0.78 0.78 0.81 0.87 0.89 0.87 0.87 0.88 0.89 0.90 0.91 0.93 0.97 1.04 1.08 1.06 1.01 0.91 0.86 0.90 0.92 0.88 0.89 0.90 0.94 1.01 1.05 1.07 1.10 1.10 1.13 1.14 1.11 1.09 1.07 1.05
0.79 0.85 0.91 0.95 1.00 1.06 1.10 1.13 1.20 1.25 1.26 1.26 1.25 1.21 1.17 1.11 1.09 1.09 1.07 1.05 1.05 1.04 1.04 1.04 1.01 0.92 0.83 0.81 0.80 0.86 0.90 0.89 0.86 0.87 0.89 0.91 0.92 0.94 0.96 1.04 1.09 1.06 1.00 0.94 0.88 0.85 0.87 0.96 0.94 0.89 0.88 0.93 1.02 1.10 1.11 1.09 1.11 1.14 1.12 1.07 1.06 1.06 1.03
0.71 0.80 0.84 0.88 0.95 1.04 1.11 1.17 1.23 1.28 1.29 1.26 1.21 1.19 1.13 1.06 1.03 1.01 0.99 0.99 1.03 1.03 1.03 1.04 0.99 0.88 0.82 0.80 0.84 0.89 0.91 0.89 0.89 0.89 0.92 0.94 0.96 0.99 1.00 1.06 1.07 1.00 0.93 0.91 0.90 0.89 0.91 0.94 0.97 0.95 0.95 0.97 1.02 1.09 1.11 1.11 1.15 1.14 1.08 1.05 1.04 1.04 1.03
0.64 0.69 0.79 0.89 0.95 1.00 1.09 1.18 1.26 1.30 1.27 1.23 1.20 1.16 1.09 1.02 0.97 0.97 0.98 1.03 1.06 1.06 1.05 1.01 0.96 0.88 0.81 0.81 0.85 0.89 0.90 0.90 0.91 0.91 0.90 0.94 0.95 0.98 1.06 1.09 1.01 0.93 0.92 0.93 0.93 0.95 0.99 0.98 0.94 0.96 0.97 0.95 1.00 1.03 1.06 1.11 1.15 1.10 1.05 1.04 1.06 1.06 1.00
0.65 0.71 0.75 0.83 0.92 1.00 1.06 1.13 1.22 1.24 1.22 1.21 1.19 1.12 1.05 0.98 0.97 0.98 0.99 1.03 1.03 1.04 1.07 1.02 0.96 0.86 0.81 0.83 0.88 0.89 0.90 0.91 0.93 0.93 0.93 0.95 0.95 1.00 1.05 1.05 0.97 0.92 0.92 0.89 0.86 0.89 0.94 0.93 0.96 0.97 0.98 1.01 1.00 0.99 1.04 1.06 1.09 1.05 1.03 1.02 1.04 1.03 0.95
0.66 0.72 0.75 0.80 0.88 0.99 1.06 1.11 1.19 1.23 1.23 1.22 1.17 1.07 1.00 0.99 0.98 1.00 1.02 1.04 1.02 0.99 0.99 1.00 0.93 0.84 0.81 0.85 0.87 0.89 0.91 0.93 0.92 0.93 0.95 0.95 0.99 1.03 1.00 1.02 0.95 0.93 0.90 0.87 0.87 0.89 0.94 0.96 0.96 0.96 0.97 0.98 0.97 0.94 1.00 1.02 1.06 1.01 0.98 0.98 0.99 0.96 0.89
0.67 0.75 0.80 0.82 0.88 0.97 1.09 1.18 1.23 1.26 1.24 1.20 1.14 1.03 0.99 0.99 1.01 1.05 1.05 1.01 0.99 0.96 0.97 0.91 0.85 0.82 0.83 0.86 0.89 0.90 0.90 0.90 0.91 0.91 0.94 0.98 1.03 1.02 1.00 1.01 0.94 0.92 0.89 0.89 0.89 0.87 0.88 0.92 0.91 0.90 0.90 0.90 0.90 0.94 0.98 1.05 1.11 1.02 0.98 0.93 0.92 0.89 0.83
0.67 0.72 0.79 0.85 0.91 0.98 1.10 1.20 1.24 1.24 1.23 1.14 1.02 0.99 1.00 1.03 1.08 1.07 1.01 0.96 0.93 0.95 0.94 0.87 0.81 0.82 0.83 0.83 0.87 0.91 0.93 0.92 0.93 0.93 0.97 1.01 1.02 1.02 1.01 0.97 0.91 0.89 0.89 0.88 0.86 0.87 0.89 0.90 0.89 0.90 0.91 0.93 0.93 0.91 0.90 0.94 0.98 0.95 0.92 0.89 0.89 0.86 0.83
0.68 0.74 0.79 0.86 0.93 1.02 1.12 1.21 1.22 1.22 1.15 1.08 1.01 0.99 1.01 1.05 1.05 0.98 0.93 0.93 0.90 0.91 0.86 0.82 0.79 0.79 0.81 0.80 0.85 0.91 0.95 0.95 0.95 0.99 1.02 1.01 1.00 1.00 1.00 0.92 0.88 0.85 0.87 0.89 0.89 0.91 0.94 0.96 0.98 1.00 1.00 0.99 0.97 0.93 0.91 0.92 0.93 0.94 0.94 0.91 0.90 0.89 0.86
0.72 0.77 0.84 0.91 1.00 1.10 1.22 1.27 1.26 1.21 1.12 1.04 0.99 1.05 1.08 1.05 0.98 0.89 0.87 0.88 0.87 0.83 0.81 0.78 0.75 0.76 0.77 0.79 0.86 0.91 0.94 0.97 0.98 0.97 0.97 0.99 0.98 0.97 0.95 0.88 0.84 0.84 0.89 0.89 0.90 0.88 0.88 0.89 0.89 0.95 1.04 1.09 1.13 1.04 1.02 1.00 0.99 0.96 0.95 0.92 0.90 0.87 0.86
0.77 0.82 0.88 0.96 1.06 1.18 1.21 1.22 1.20 1.15 0.99 0.96 1.04 1.05 0.96 0.92 0.89 0.88 0.84 0.81 0.81 0.80 0.80 0.76 0.75 0.77 0.77 0.82 0.88 0.92 0.97 0.99 0.98 0.94 0.94 0.98 0.98 0.97 0.90 0.88 0.89 0.91 0.99 0.95 0.92 0.96 0.97 0.94 0.90 0.95 1.00 0.95 0.94 1.04 1.11 1.03 1.04 1.03 0.99 0.96 0.92 0.90 0.87
0.78 0.86 0.91 0.97 1.02 1.04 1.09 1.13 1.12 1.03 1.00 1.04 0.98 0.94 0.91 0.88 0.86 0.85 0.80 0.75 0.75 0.76 0.76 0.75 0.77 0.79 0.79 0.84 0.89 0.95 1.00 1.02 1.00 0.97 0.97 0.96 0.96 0.94 0.91 0.93 0.91 0.87 0.93 0.88 0.89 1.02 1.09 1.02 0.96 1.05 1.11 1.07 1.01 0.98 0.98 1.05 1.13 1.08 1.03 0.99 0.97 0.96 0.96
0.73 0.80 0.88 0.98 1.06 1.09 1.07 1.12 1.08 0.98 0.98 0.97 0.93 0.89 0.88 0.88 0.83 0.80 0.76 0.77 0.78 0.73 0.73 0.78 0.84 0.85 0.86 0.89 0.91 0.97 1.03 1.03 0.99 0.99 0.98 0.96 0.97 1.00 0.99 0.93 0.86 0.86 0.92 0.90 0.89 0.90 0.93 0.96 0.96 0.95 0.99 1.05 1.09 1.12 1.05 1.06 1.09 1.08 1.05 0.99 1.00 1.01 1.03
0.84 0.87 0.91 0.92 0.98 1.05 1.06 1.07 1.00 0.97 0.96 0.89 0.86 0.88 0.91 0.90 0.85 0.83 0.83 0.84 0.84 0.80 0.82 0.89 0.94 0.91 0.90 0.95 1.03 1.02 0.99 0.99 1.00 0.99 1.02 1.03 1.05 1.02 0.92 0.88 0.86 0.90 0.96 0.93 0.91 0.94 0.94 0.94 0.96 0.96 0.97 0.98 1.02 1.06 1.09 1.15 0.99 0.96 1.01 1.01 1.02 1.05 1.04
0.85 0.89 0.96 0.99 1.00 1.04 1.04 0.99 0.96 0.90 0.87 0.88 0.86 0.90 0.95 0.94 0.89 0.87 0.89 0.89 0.90 0.89 0.91 0.96 0.94 0.94 1.01 1.09 1.04 1.00 0.97 0.94 0.97 1.00 1.02 0.94 0.97 0.94 0.90 0.91 0.92 0.89 0.91 0.98 0.99 0.94 0.92 0.94 0.95 0.99 1.00 1.03 1.00 1.04 1.03 1.05 1.12 1.02 1.04 1.02 1.04 1.06 1.07
0.86 0.88 0.90 0.92 0.94 0.99 0.98 0.95 0.92 0.89 0.88 0.91 0.93 0.99 0.97 0.93 0.88 0.88 0.90 0.90 0.95 0.94 0.95 0.99 1.06 1.10 1.08 1.04 1.03 1.01 0.97 0.94 0.94 0.98 1.06 1.12 1.01 0.90 0.86 0.89 0.89 0.90 0.91 0.93 0.96 0.96 0.94 0.93 0.95 0.98 0.99 1.00 0.98 0.99 1.04 1.06 1.19 1.19 1.09 1.05 1.03 1.03 1.02
0.93 0.95 0.96 0.96 0.98 1.00 0.97 0.97 0.95 0.94 0.92 0.94 1.06 1.04 1.02 0.96 0.92 0.91 0.90 0.90 1.01 1.03 1.04 1.10 1.14 1.07 1.02 1.03 1.01 0.97 0.93 0.94 0.97 1.01 1.04 1.01 0.97 0.90 0.85 0.89 0.94 0.95 0.96 0.95 0.93 0.95 0.95 0.95 0.96 0.98 0.98 0.97 0.97 0.99 1.01 1.15 1.25 1.04 1.02 1.12 1.11 1.03 0.99
0.93 0.95 0.95 0.95 0.94 1.01 0.99 0.96 0.97 0.97 0.99 1.01 1.02 1.01 0.95 0.93 0.88 0.89 0.88 0.95 1.06 1.09 1.08 1.10 1.04 0.99 1.03 1.02 0.99 0.97 0.97 0.99 0.99 1.01 1.02 1.00 0.93 0.86 0.84 0.87 0.93 0.95 0.98 0.93 0.92 0.95 0.95 0.96 0.98 0.99 1.01 0.98 0.98 0.95 0.99 1.05 1.13 1.08 0.96 1.00 1.08 1.08 1.04
0.98 0.99 1.01 1.00 0.99 0.99 1.01 1.01 0.98 0.98 0.99 1.01 1.01 0.99 0.99 0.99 0.96 0.91 0.92 1.01 1.09 1.09 1.08 1.04 1.00 1.00 0.99 0.97 0.97 1.00 1.04 1.03 1.02 1.04 1.02 0.96 0.92 0.89 0.89 0.92 0.96 0.96 0.98 0.97 0.95 0.96 0.97 1.00 1.01 1.00 1.00 0.96 0.96 0.96 0.96 1.07 1.13 1.13 1.11 1.03 1.01 1.02 1.05
0.96 0.96 0.96 0.94 0.97 0.97 0.95 0.95 0.93 0.93 0.95 0.96 1.01 0.99 0.99 0.99 0.99 0.98 1.05 1.13 1.14 1.05 1.04 1.04 1.02 1.00 0.98 0.97 0.98 1.05 1.05 0.98 0.93 0.94 0.97 0.95 0.94 0.93 0.94 0.97 0.98 0.99 0.99 0.97 0.95 0.95 0.98 1.01 1.04 1.03 1.01 0.97 0.97 1.01 1.04 1.02 1.04 1.01 1.02 1.00 0.97 0.97 1.00
0.95 0.95 0.98 0.99 0.96 0.94 0.94 0.92 0.91 0.92 0.93 0.97 1.05 1.03 1.00 0.97 0.97 0.99 1.01 1.09 1.07 1.09 1.05 1.00 0.95 0.95 0.93 0.98 1.06 1.09 1.07 1.01 0.97 0.94 0.92 0.93 0.91 0.90 0.92 1.00 0.99 0.97 0.95 0.97 0.99 0.98 0.99 1.03 1.04 1.03 1.00 0.97 0.97 0.98 1.00 0.98 1.01 1.00 0.94 0.93 0.92 0.92 0.95
0.96 0.96 0.95 0.94 0.94 0.96 0.98 0.97 0.95 0.94 0.90 0.92 0.94 0.95 0.92 0.92 0.92 0.98 1.03 1.01 1.03 1.08 0.99 0.96 0.93 0.92 0.99 1.05 1.05 1.05 1.00 0.98 1.00 0.98 0.93 0.92 0.93 0.92 0.92 0.94 0.95 0.94 0.97 1.11 1.10 1.04 0.99 1.01 1.05 1.05 1.03 1.01 1.01 0.97 0.94 0.94 0.91 0.94 0.97 0.95 0.94 0.91 0.90
0.95 0.94 0.94 0.96 0.96 0.94 0.91 0.89 0.89 0.87 0.85 0.85 0.84 0.84 0.86 0.87 0.88 0.90 0.96 1.03 1.10 1.07 1.02 0.98 0.96 0.96 1.00 1.05 1.02 1.01 1.00 1.00 0.99 0.96 0.89 0.84 0.83 0.87 0.96 1.00 1.01 1.01 1.03 1.09 1.11 1.08 1.08 1.09 1.06 1.05 1.06 1.05 1.06 1.03 0.93 0.88 0.91 0.95 0.95 0.94 0.93 0.94 0.94
0.85 0.85 0.85 0.87 0.85 0.84 0.85 0.85 0.83 0.83 0.79 0.80 0.79 0.80 0.80 0.82 0.85 0.89 0.95 1.02 1.06 1.06 1.03 0.98 0.97 0.91 0.92 0.99 0.98 0.96 0.96 0.91 0.87 0.89 0.88 0.87 0.90 0.90 0.91 0.99 1.05 1.09 1.11 1.12 1.10 1.10 1.11 1.12 1.12 1.12 1.11 1.09 1.05 1.03 0.99 0.95 0.93 0.91 0.91 0.93 0.94 0.94 0.94
0.87 0.87 0.85 0.84 0.82 0.82 0.82 0.82 0.81 0.81 0.81 0.82 0.82 0.81 0.82 0.82 0.87 0.89 0.93 1.01 1.04 1.06 1.04 0.99 0.93 0.90 0.90 0.92 0.95 0.94 0.88 0.85 0.84 0.81 0.82 0.88 0.93 0.95 0.95 0.99 1.01 1.03 1.13 1.16 1.13 1.13 1.14 1.14 1.13 1.12 1.12 1.12 1.07 0.99 0.95 0.93 0.90 0.88 0.88 0.90 0.91 0.93 0.93
Wind_Speed
21 20 19 18 17 17 17 16 15 14 13 13 12 12 11 11 10 10 11 12 14 14 15 17 18 18 18 18 19 19 18 18 18 18 18 18 19 20 21 22 23 23 23 24 24 24 25 25 25 25 25 25 25 25 25 24 24 24 24 24 24 23 24
22 21 20 19 18 18 17 17 16 16 15 14 13 13 12 12 11 12 13 13 14 15 16 17 18 19 19 19 19 19 19 19 18 18 18 19 20 21 22 23 23 23 23 24 24 24 25 25 25 25 25 25 25 25 24 24 24 24 23 23 23 23 23
22 22 21 20 19 18 18 18 17 17 16 15 14 14 13 12 12 13 14 14 15 16 17 18 19 20 20 20 20 19 19 19 19 18 19 19 20 21 22 23 23 24 24 24 24 24 24 24 25 24 24 24 24 24 24 24 24 23 23 23 23 23 23
22 22 21 20 19 19 19 18 18 18 17 16 15 15 14 13 13 14 14 15 15 16 17 18 20 21 21 21 21 20 20 20 19 19 19 20 20 22 22 23 23 24 24 24 24 24 24 24 24 24 24 24 24 24 25 25 24 24 24 24 24 24 24
21 21 21 20 20 20 19 19 19 19 18 17 16 16 15 14 14 14 15 16 16 17 18 19 20 21 22 22 22 21 21 21 20 20 20 20 21 22 23 23 24 24 24 24 24 24 24 24 24 24 24 24 24 24 25 25 25 24 24 24 25 25 25
20 20 20 20 20 20 20 20 20 20 19 18 17 16 16 15 15 15 16 16 17 18 18 20 21 22 22 22 22 22 22 21 20 20 20 21 22 22 23 23 24 24 24 24 24 24 25 25 25 25 24 24 24 25 25 25 25 25 25 25 25 25 26
19 20 20 20 20 20 20 20 21 20 20 19 17 17 17 16 16 16 16 17 18 18 19 20 21 22 23 23 23 23 22 21 21 21 21 21 22 23 23 23 24 24 24 24 25 25 25 25 25 25 25 25 24 25 25 25 25 25 25 25 26 26 27
17 19 20 20 20 20 20 20 21 21 20 19 18 18 18 17 16 17 17 18 18 19 20 21 21 22 23 24 23 23 22 22 21 21 21 22 22 23 23 23 24 24 25 25 25 25 26 26 26 25 25 25 25 25 25 26 25 25 25 25 26 27 27
15 17 19 20 20 20 20 20 21 21 21 20 19 18 18 17 17 18 18 19 19 20 21 21 22 22 23 24 24 23 23 22 21 21 22 22 23 23 24 24 24 25 25 26 26 26 27 27 26 26 26 26 26 25 25 26 26 25 25 26 26 27 26
14 15 17 19 19 20 20 20 21 21 21 20 19 19 18 18 19 19 19 20 20 21 21 22 22 23 24 24 24 23 23 22 22 22 22 22 23 24 24 25 25 26 26 26 27 27 27 27 27 27 26 26 26 26 26 26 26 26 26 26 27 27 27
14 15 16 18 18 18 19 20 21 21 21 20 20 20 20 20 20 20 20 21 21 21 22 22 23 24 24 25 24 23 23 22 22 22 23 23 24 24 25 26 26 26 26 27 27 28 28 28 28 27 27 26 26 26 26 26 27 27 27 27 27 27 27
15 15 16 17 18 18 18 19 20 21 21 21 21 21 20 21 21 21 21 22 22 22 22 23 23 24 25 25 24 23 23 23 23 23 23 24 24 25 26 26 27 27 27 27 28 29 29 29 28 28 27 27 27 27 27 27 27 27 28 27 27 27 27
16 16 16 17 18 18 18 19 21 21 21 21 21 21 21 21 21 21 22 22 22 22 23 23 24 25 25 25 24 24 23 23 23 24 24 24 25 25 26 27 27 27 28 28 29 29 29 29 29 28 28 27 28 28 28 27 27 28 28 27 27 27 27
17 18 18 18 19 19 20 21 21 21 22 21 21 21 21 21 21 21 22 22 23 23 23 24 25 25 25 25 24 24 24 24 24 24 25 25 25 26 27 27 28 28 28 29 29 29 29 29 29 28 28 28 28 29 28 28 27 27 27 26 26 26 27
19 20 20 20 20 21 21 21 21 21 21 21 21 21 21 21 21 21 22 23 23 23 24 24 25 25 25 25 25 24 24 24 24 25 25 26 26 26 27 28 28 29 29 29 29 29 29 29 29 28 28 28 28 29 28 27 27 26 26 25 25 26 26
21 21 21 22 22 22 22 22 22 22 21 21 21 21 21 21 21 21 22 23 23 24 24 25 25 25 25 25 25 25 25 24 24 25 26 26 26 27 27 28 29 29 29 29 29 29 29 29 29 28 28 28 28 28 28 27 26 25 25 25 25 25 25
22 22 22 22 22 22 22 23 23 22 21 21 21 21 21 21 21 22 22 23 23 24 24 24 25 26 26 25 25 25 25 25 25 26 26 26 27 27 28 29 29 29 29 29 29 29 29 29 29 28 28 28 28 28 27 26 25 24 24 24 24 24 24
22 22 22 22 22 23 23 23 23 22 22 22 21 21 21 21 21 22 22 23 23 24 24 24 25 26 26 25 25 26 26 25 26 26 26 27 28 28 28 29 29 29 29 29 29 29 29 29 29 28 28 28 27 27 26 25 24 23 23 23 23 23 23
21 21 22 22 22 23 24 24 23 22 22 22 21 21 21 21 21 22 22 23 23 24 24 24 25 26 26 26 26 26 26 26 26 26 27 28 28 28 29 29 29 29 29 29 29 29 29 29 29 28 28 27 26 25 24 23 22 22 22 22 22 22 22
20 21 21 22 22 23 24 23 22 22 22 21 21 20 20 21 21 22 22 23 23 24 25 25 26 26 26 26 26 25 26 26 26 27 27 28 28 29 29 29 29 29 29 29 29 29 29 28 28 28 27 27 25 24 23 22 21 21 21 21 21 21 21
19 20 20 21 21 22 22 22 21 21 21 21 20 20 20 21 22 22 23 23 23 24 25 26 26 26 25 25 25 25 26 26 27 27 28 28 28 28 28 28 28 28 28 28 29 29 28 28 28 28 27 26 24 23 22 21 20 20 20 20 21 21 21
18 19 19 20 20 21 21 21 21 21 20 20 20 20 20 21 22 23 23 23 24 25 25 26 26 25 25 25 25 26 26 27 27 28 28 28 28 28 28 28 28 29 29 29 29 29 28 28 28 27 26 24 23 22 21 20 20 20 20 20 20 20 21
16 17 18 18 19 19 19 20 21 20 19 19 19 20 21 22 23 23 23 24 25 25 25 26 25 25 24 25 25 26 27 27 28 28 28 28 28 28 28 28 29 29 29 29 29 29 28 28 27 26 24 23 22 22 21 21 20 20 19 19 20 20 21
14 15 16 17 17 17 18 20 20 19 19 19 19 20 22 23 23 23 23 24 25 25 25 25 25 24 24 25 25 26 27 27 28 28 28 28 28 28 28 28 29 29 29 29 29 28 27 27 27 25 23 22 22 22 22 22 21 19 19 19 19 20 21
13 13 14 15 16 16 18 19 19 18 18 19 20 21 22 23 23 23 24 24 24 24 24 25 24 24 24 25 26 27 27 27 28 28 29 29 29 28 28 28 29 30 30 29 29 28 27 27 27 25 24 23 22 22 22 21 20 19 18 19 19 19 20
12 12 12 13 14 15 16 17 17 17 18 19 21 22 22 23 24 24 25 24 24 24 25 25 24 24 25 26 26 27 27 27 28 28 29 29 29 28 28 29 30 30 30 29 29 28 28 28 26 25 24 23 22 22 21 20 20 19 19 18 18 18 19
13 12 12 13 14 15 16 16 16 17 19 20 22 22 23 24 24 25 25 25 25 25 25 25 25 26 26 26 26 27 28 28 28 28 29 30 30 29 29 30 30 30 30 30 29 28 28 27 25 24 23 22 22 21 20 20 20 19 18 18 18 17 18
13 13 13 14 14 14 15 16 17 19 21 22 22 23 23 23 24 25 25 25 26 26 26 26 27 27 27 26 27 28 28 28 29 28 29 30 30 30 30 30 30 31 31 30 29 28 27 26 24 23 22 21 21 20 20 20 20 19 17 17 17 17 17
13 14 14 14 15 15 16 17 19 21 22 22 22 23 23 23 24 25 25 26 28 27 27 27 28 28 27 27 27 28 28 29 29 29 29 30 30 30 30 30 30 30 30 30 29 28 26 25 23 22 21 21 20 20 19 19 18 17 17 17 17 17 17
14 15 15 16 17 17 18 19 20 21 22 22 22 23 23 24 25 25 26 28 28 28 28 28 27 27 27 28 28 28 29 29 29 29 29 30 30 30 30 30 30 30 29 29 28 27 26 24 22 21 21 20 19 19 19 18 17 17 17 17 17 17 17
16 16 16 17 17 18 20 20 21 21 22 23 23 23 24 25 26 27 28 28 28 28 28 27 27 27 28 28 28 28 28 28 28 28 29 29 30 30 30 30 31 30 29 28 27 26 25 23 21 20 20 19 18 18 18 17 17 16 16 16 17 18 17
17 17 17 17 18 19 20 21 21 22 23 24 24 25 26 26 27 28 29 29 28 28 27 27 27 27 27 27 27 27 27 28 28 28 29 29 30 30 30 30 30 29 28 27 26 25 23 21 20 19 19 19 18 18 17 17 16 16 16 16 17 17 17
17 17 17 18 18 19 20 21 22 23 24 25 25 26 27 28 29 29 29 29 28 27 27 26 26 26 26 26 26 26 27 28 27 28 29 29 29 30 30 30 29 27 27 27 26 24 22 20 19 18 18 18 18 17 17 16 15 16 16 17 17 17 17
17 17 17 18 18 19 20 21 22 23 24 25 26 27 27 28 28 28 28 28 27 26 25 25 25 25 25 25 25 26 27 28 28 28 29 29 30 30 30 29 28 27 28 27 25 23 21 19 18 17 17 17 16 16 16 15 15 16 17 18 17 17 16
17 18 18 18 19 20 20 21 22 23 24 25 26 27 28 28 28 27 27 26 25 25 24 24 24 24 25 25 25 26 27 27 28 28 29 30 30 30 29 29 28 29 29 27 24 22 20 18 17 17 16 16 15 15 15 15 15 16 17 18 17 17 16
19 19 19 19 20 20 21 22 23 24 25 26 27 27 27 27 27 27 26 25 25 25 24 24 24 25 26 26 26 27 27 27 28 28 29 29 29 28 27 27 28 28 27 24 21 19 18 16 16 16 15 14 13 13 14 14 15 17 17 17 16 15 14
21 20 20 21 21 22 22 24 25 26 26 26 27 27 27 27 27 27 26 25 25 25 24 24 25 25 26 26 26 26 27 27 28 28 27 27 26 26 26 25 25 25 22 18 16 15 15 14 14 13 13 12 12 12 13 14 15 16 16 15 14 14 13
22 22 22 23 23 23 24 26 26 26 27 27 27 27 27 26 26 26 25 25 25 25 25 25 25 25 25 26 26 26 26 27 27 26 26 25 25 25 25 24 23 21 17 15 13 13 12 12 12 11 11 11 11 12 12 13 14 15 15 14 13 13 13
Wind_Direction
231 231 230 232 232 233 234 237 237 236 237 240 244 248 256 268 279 290 299 304 311 317 321 325 326 325 323 321 321 321 320 318 317 317 317 317 318 319 320 320 320 319 319 318 318 317 317 317 318 319 319 319 318 316 315 313 310 307 304 301 299 297 293
232 233 232 232 233 233 233 235 238 238 238 241 246 250 257 267 277 287 295 301 307 314 320 324 326 326 324 322 321 320 319 318 316 316 316 316 318 319 320 320 319 318 318 317 317 317 317 317 317 318 318 318 317 316 315 314 312 309 306 304 302 300 297
233 233 233 233 234 233 233 235 238 239 240 243 247 252 257 266 276 284 292 298 304 311 318 323 325 326 325 323 321 320 318 317 316 315 315 315 317 319 320 320 319 318 317 317 317 317 317 316 316 317 317 317 316 315 314 314 312 310 307 305 303 302 301
234 233 232 232 234 234 234 236 238 240 241 244 247 252 257 265 274 282 289 296 302 308 315 320 323 325 325 323 321 319 317 316 315 313 313 314 316 318 320 320 319 318 316 316 316 316 316 316 316 316 316 315 314 314 313 313 311 309 306 305 304 303 302
234 233 231 232 234 235 236 236 237 240 242 244 247 252 258 264 272 280 287 294 300 306 313 317 321 323 323 322 320 318 317 315 314 313 312 313 315 317 319 319 319 318 317 316 315 316 316 316 316 316 315 314 313 313 313 312 311 308 306 305 304 303 302
235 233 232 232 234 235 236 235 237 240 242 243 247 252 258 264 270 278 285 292 298 304 310 315 318 321 321 320 319 317 316 314 313 312 311 312 314 316 317 318 318 318 317 316 315 315 315 315 316 315 314 312 311 311 312 312 311 308 306 304 304 304 303
237 234 233 233 234 235 235 235 237 239 242 244 247 251 257 263 270 277 284 290 296 301 307 312 315 318 319 319 317 316 315 313 312 311 311 312 313 314 315 316 317 317 316 316 315 315 315 315 315 315 313 311 310 309 310 311 311 309 307 305 305 305 304
238 236 235 235 236 236 235 235 237 239 242 244 247 250 256 263 270 276 281 288 294 300 305 309 312 316 317 317 316 315 314 312 311 310 310 311 312 313 314 315 315 315 315 315 315 315 315 315 315 315 313 311 309 308 309 309 310 309 308 306 306 306 305
238 237 237 236 238 238 237 236 237 240 242 243 247 250 256 263 269 274 279 286 293 298 303 308 310 312 315 315 315 313 312 312 311 310 309 310 311 313 314 314 314 314 313 313 314 314 314 313 314 314 313 311 309 308 308 308 308 309 308 308 308 307 306
243 240 238 237 239 240 239 237 237 239 241 243 247 250 255 262 268 273 279 285 291 296 301 305 307 310 312 313 313 312 311 310 310 310 309 309 311 311 313 314 314 314 313 313 313 313 313 312 312 312 311 311 309 308 307 307 307 308 308 308 309 309 307
249 246 242 239 239 239 238 238 238 239 241 244 247 250 255 262 267 272 277 283 290 296 300 303 305 308 310 311 311 310 309 309 309 309 308 309 309 310 312 313 314 314 313 313 314 313 312 311 311 310 310 309 308 307 307 306 306 306 307 308 309 309 308
253 250 247 242 240 240 240 240 241 240 242 245 247 250 255 261 266 271 277 282 288 294 298 301 303 306 309 310 309 308 308 308 309 308 308 308 309 310 311 312 312 312 313 314 314 313 312 311 311 309 308 307 307 306 305 305 305 305 306 307 308 309 309
257 253 250 246 245 244 243 243 243 241 242 244 247 250 256 262 266 271 276 281 286 292 296 299 302 305 307 308 308 308 308 308 308 308 309 309 309 309 310 310 311 312 312 313 313 313 312 311 310 309 307 306 305 304 304 303 304 305 305 306 307 308 310
258 255 252 248 246 245 244 244 243 242 242 245 248 251 257 263 267 271 276 280 285 290 294 298 301 303 305 306 307 307 308 308 308 308 309 309 309 309 310 309 310 311 311 312 312 313 312 311 310 308 306 305 304 303 303 302 302 304 305 305 305 307 309
256 255 252 249 247 246 245 245 244 243 243 245 248 252 258 264 268 272 276 280 285 289 293 297 299 301 303 305 306 307 307 307 308 308 309 308 309 309 309 309 309 310 311 312 312 312 311 310 310 308 305 305 304 303 302 301 301 302 304 304 304 306 309
255 253 251 250 248 247 247 246 244 243 244 246 249 253 258 263 268 272 275 280 284 288 293 296 298 300 302 303 304 306 306 306 307 308 308 308 308 309 309 310 310 310 311 312 312 312 311 311 310 308 306 305 305 303 302 301 300 301 302 302 302 306 309
254 252 251 250 248 247 247 246 245 244 245 247 250 254 258 264 268 271 275 280 284 289 293 295 296 299 301 302 303 305 305 305 306 307 307 307 308 308 309 310 310 310 311 312 312 311 311 311 310 308 307 306 305 304 302 301 300 300 301 300 302 306 309
256 253 251 250 248 247 246 245 245 245 245 247 250 254 259 264 268 271 275 280 286 290 293 294 295 298 300 301 302 304 304 305 305 306 306 307 307 308 309 310 310 310 311 312 312 311 311 311 310 309 308 307 306 304 303 301 300 299 300 301 302 306 309
259 256 253 251 247 244 244 245 244 243 244 247 250 254 259 263 267 271 276 281 287 291 292 293 295 298 299 300 301 303 304 304 305 305 305 306 307 308 309 310 310 311 312 312 312 311 311 311 310 309 308 306 305 304 303 302 300 300 301 301 303 306 309
262 259 256 252 247 243 243 244 243 242 244 247 250 255 259 264 268 272 277 283 288 290 291 293 295 297 297 299 300 302 303 304 305 305 306 306 307 308 309 310 310 312 312 312 312 311 311 310 310 309 308 306 305 304 303 302 301 301 302 302 304 306 309
264 261 257 254 250 245 243 242 241 242 243 246 250 255 261 266 270 274 279 283 287 289 290 293 294 295 296 298 299 301 303 304 305 306 306 307 307 307 308 310 310 311 312 312 312 311 311 310 310 309 307 306 304 303 303 302 301 302 303 302 303 305 308
263 261 258 256 252 247 242 239 239 240 243 247 252 256 262 267 271 275 279 284 286 288 290 292 293 294 296 297 299 301 303 304 306 307 307 307 307 307 308 309 310 310 310 311 311 311 311 310 310 310 308 306 305 303 302 302 301 301 302 301 301 304 307
264 262 260 257 252 246 240 237 238 240 243 248 253 258 264 269 272 275 280 284 286 288 289 291 292 294 295 297 299 301 303 304 306 307 307 307 307 307 308 308 309 309 310 311 311 311 311 311 311 311 309 306 304 303 303 303 302 301 301 301 301 303 306
265 264 261 256 249 244 240 238 238 240 243 248 255 262 268 271 272 276 281 284 286 287 288 290 292 294 296 297 299 301 302 304 305 306 307 307 307 307 308 308 308 309 310 311 311 310 311 311 311 310 308 306 303 301 301 302 302 301 301 301 302 304 306
266 265 261 256 250 244 241 240 240 242 246 252 260 266 270 272 273 277 281 283 285 287 288 289 291 294 296 297 299 301 302 303 304 305 306 306 306 307 307 307 308 309 309 309 309 309 309 309 308 307 306 305 304 302 301 301 300 300 301 302 303 305 307
266 265 260 256 252 248 246 245 245 247 252 259 264 268 272 274 275 278 281 283 285 287 288 289 291 294 295 296 299 300 301 302 303 304 305 306 307 307 307 307 307 307 307 306 306 305 305 305 305 303 302 303 303 303 301 300 300 301 301 302 303 306 308
265 264 260 256 254 252 251 250 251 254 260 265 268 271 274 276 276 278 281 283 284 286 287 289 291 293 294 296 298 299 300 301 302 302 304 305 306 306 306 307 307 307 306 305 304 303 303 303 302 300 299 300 302 302 301 300 300 300 300 301 304 307 309
263 262 261 259 258 257 255 255 257 261 265 268 270 273 277 278 278 279 282 283 283 284 287 289 290 292 294 295 296 298 299 301 302 302 303 304 305 305 305 306 307 307 306 305 304 302 301 301 299 297 297 299 300 301 301 300 298 297 298 301 304 306 308
260 260 261 261 259 258 258 261 264 266 268 270 273 276 278 280 282 282 283 284 284 284 287 289 290 291 293 295 296 297 298 301 302 302 302 304 304 305 305 305 306 306 305 304 303 302 300 299 297 294 295 297 299 300 301 301 300 299 301 303 305 306 307
260 261 263 264 263 261 262 266 269 270 272 275 278 278 279 283 285 285 284 285 285 285 287 289 289 291 293 294 294 295 297 300 301 301 302 303 303 304 304 304 304 304 304 304 303 302 300 297 293 291 292 295 298 299 300 301 302 303 304 304 306 307 307
261 263 265 267 267 266 266 270 273 275 276 279 281 281 282 284 286 286 285 286 285 285 286 288 289 290 291 292 293 295 297 299 300 301 301 302 303 304 304 304 303 302 302 302 302 301 299 295 290 288 289 293 296 298 299 300 302 305 305 305 307 308 307
261 264 266 268 270 271 272 274 276 278 279 281 282 283 284 285 287 287 287 286 285 285 286 287 288 289 289 291 293 295 296 298 299 300 302 303 304 304 304 303 302 300 299 299 300 299 296 291 287 285 287 291 294 296 297 299 301 305 307 309 310 310 309
263 266 268 270 272 274 276 277 279 280 282 283 284 285 286 287 288 289 289 287 286 286 286 287 288 288 288 290 292 294 295 296 298 300 302 303 304 305 304 302 301 300 297 296 296 295 292 287 284 284 286 289 291 293 295 298 300 303 307 310 311 311 311
265 268 271 273 275 276 278 279 281 283 286 287 288 288 288 289 290 291 290 289 287 287 287 287 287 288 290 291 292 293 295 296 297 299 301 302 303 304 303 302 300 299 297 295 293 291 287 284 282 283 285 287 289 292 295 298 300 304 307 308 309 310 310
268 271 273 275 276 278 280 282 284 287 288 289 289 290 290 290 291 292 291 289 288 287 287 287 288 290 291 291 291 292 293 295 296 298 300 302 303 303 303 302 301 299 296 292 288 285 283 280 280 282 284 286 288 292 296 298 301 304 306 306 307 307 308
270 272 273 275 278 281 283 285 287 288 288 289 290 290 290 290 291 291 290 289 287 287 287 288 290 291 291 289 289 290 291 294 297 298 300 302 303 303 303 305 305 303 297 289 283 280 279 277 277 280 282 284 287 293 297 300 302 304 306 308 309 309 310
272 272 273 275 279 282 284 285 287 288 289 289 289 289 289 289 289 289 289 288 287 287 287 289 290 290 289 288 289 290 291 294 297 298 300 302 303 303 304 306 308 307 300 288 279 277 276 275 275 278 282 284 287 292 297 302 305 306 307 310 311 312 314
273 273 274 277 279 280 282 285 287 288 289 289 289 289 288 288 288 288 288 287 287 287 288 288 289 289 288 287 288 290 292 295 297 298 299 300 301 303 305 306 308 308 300 287 279 275 272 269 270 275 281 286 290 295 299 304 307 309 309 310 311 312 315